Weather History for Cairns, QU

Change the Weather History Date:

Monday, March 12, 2012

  Actual Average Record
Temperature  
Mean Temperature 78 °F -  
Max Temperature 82 °F 86 °F 93 °F (2007)
Min Temperature 73 °F 72 °F 32 °F (2004)
Cooling Degree Days 12    
Growing Degree Days 28 (Base 50)    
Moisture  
Dew Point 73 °F    
Average Humidity 90    
Maximum Humidity 100    
Minimum Humidity 74    
Precipitation  
Precipitation 1.69 in 0.47 in - ()
Sea Level Pressure  
Sea Level Pressure 29.83 in    
Wind  
Wind Speed 9 mph ()    
Max Wind Speed 14 mph    
Max Gust Speed -    
Visibility 4.5 miles    
Events Rain    
Averages and records for this station are not official NWS values.
T = Trace of Precipitation, MM = Missing Value Source: Averaged Metar Reports

Daily Weather History Graph

Daily Weather History Graph

Search for Another Location

Airport:

Trip Planner

Search our weather history database for the weather conditions in past years. The results will help you decide how hot, cold, wet, or windy it might be!

Date:

Astronomy

Mar. 12, 2012 Rise Set
Actual Time 6:19 AM AEST 6:33 PM AEST
Civil Twilight 5:57 AM AEST 6:55 PM AEST
Nautical Twilight 5:32 AM AEST 7:20 PM AEST
Astronomical Twilight 5:07 AM AEST 7:46 PM AEST
Moon 9:33 PM AEST (3/12) 9:50 AM AEST (3/12)
Length of Visible Light 12h 57m
Length of Day
12h 14m
Waning Gibbous, 82% of the Moon is Illuminated
Mar 12
Waning Gibbous
Mar 15
Last Quarter
Mar 23
New
Mar 31
First Quarter
Apr 7
Full

Hourly Weather History & Observations

Time (AEST) Temp. Heat Index Dew Point Humidity Pressure Visibility Wind Dir Wind Speed Gust Speed Precip Events Conditions
12:00 AM 75 °F - 72 °F 87% 29.87 in - South 12.7 mph - -   Overcast
12:00 AM 75.2 °F - 71.6 °F 89% 29.86 in 6.2 mi South 12.7 mph - N/A   Mostly Cloudy
12:30 AM 75.2 °F - 71.6 °F 89% 29.86 in 6.2 mi South 11.5 mph - N/A   Mostly Cloudy
1:00 AM 75 °F - 72 °F 87% 29.85 in - South 11.5 mph - -  
1:00 AM 75.2 °F - 71.6 °F 89% 29.83 in 6.2 mi South 11.5 mph - N/A   Mostly Cloudy
1:30 AM 75.2 °F - 71.6 °F 89% 29.83 in 6.2 mi South 11.5 mph - N/A   Mostly Cloudy
2:00 AM 75.2 °F - 71.6 °F 89% 29.83 in 6.2 mi South 9.2 mph - N/A   Mostly Cloudy
2:30 AM 75.2 °F - 69.8 °F 83% 29.80 in 6.2 mi South 10.4 mph - N/A   Scattered Clouds
3:00 AM 76 °F - 70 °F 76% 29.80 in - South 10.4 mph - -  
3:00 AM 77.0 °F - 69.8 °F 78% 29.80 in 6.2 mi South 10.4 mph - N/A   Scattered Clouds
3:30 AM 75.2 °F - 71.6 °F 89% 29.80 in 6.2 mi SSE 12.7 mph - N/A   Mostly Cloudy
3:53 AM 75.2 °F - 73.4 °F 94% 29.80 in 1.2 mi ESE 9.2 mph - N/A Rain Rain Showers
4:00 AM 74 °F - 72 °F 92% 29.82 in - East 6.9 mph - -  
4:00 AM 75.2 °F - 71.6 °F 89% 29.80 in 5.6 mi East 6.9 mph - N/A Rain Light Rain Showers
4:19 AM 75.2 °F - 73.4 °F 94% 29.80 in 2.5 mi ESE 6.9 mph - N/A Rain Rain Showers
4:30 AM 73.4 °F - 73.4 °F 100% 29.80 in 0.9 mi SE 6.9 mph - N/A Rain Heavy Rain Showers
4:40 AM 73.4 °F - 73.4 °F 100% 29.80 in 3.1 mi SE 6.9 mph - N/A Rain Light Rain Showers
5:00 AM 73.4 °F - 73.4 °F 100% 29.80 in 1.2 mi South 8.1 mph - N/A Rain Rain Showers
5:10 AM 73.4 °F - 71.6 °F 94% 29.80 in 4.3 mi South 9.2 mph - N/A Rain Light Rain Showers
5:19 AM 73.4 °F - 71.6 °F 94% 29.80 in 2.5 mi South 10.4 mph - N/A Rain Rain Showers
5:30 AM 73.4 °F - 71.6 °F 94% 29.80 in 5.0 mi South 6.9 mph - N/A Rain Light Rain Showers
5:58 AM 75.2 °F - 73.4 °F 94% 29.80 in 3.1 mi SE 8.1 mph - N/A Rain Light Rain Showers
6:00 AM 74 °F - 73 °F 95% 29.83 in 2 mi East 12.7 mph - - Rain Heavy Rain Showers
6:00 AM 73.4 °F - 73.4 °F 100% 29.83 in 2.5 mi East 12.7 mph - N/A Rain Rain Showers
6:30 AM 73.4 °F - 73.4 °F 100% 29.83 in 3.7 mi SSE 8.1 mph - N/A Rain Light Rain Showers
7:00 AM 74 °F - 73 °F 94% 29.84 in - South 5.8 mph - -  
7:00 AM 75.2 °F - 73.4 °F 94% 29.83 in 5.0 mi South 5.8 mph - N/A   Mostly Cloudy
7:30 AM 75.2 °F - 73.4 °F 94% 29.83 in 6.2 mi South 6.9 mph - N/A   Mostly Cloudy
8:00 AM 77.0 °F - 73.4 °F 89% 29.86 in 6.2 mi WNW 4.6 mph - N/A   Mostly Cloudy
8:30 AM 77.0 °F - 73.4 °F 89% 29.86 in 6.2 mi South 6.9 mph - N/A   Mostly Cloudy
9:00 AM 77 °F - 72 °F 82% 29.87 in 4 mi South 9.2 mph - - Rain Light Rain Showers
9:00 AM 77.0 °F - 73.4 °F 89% 29.86 in 3.7 mi South 9.2 mph - N/A Rain Light Rain Showers
9:25 AM 78.8 °F - 73.4 °F 83% 29.86 in 6.2 mi South 11.5 mph - N/A   Mostly Cloudy
9:30 AM 78.8 °F - 75.2 °F 89% 29.86 in 6.2 mi South 11.5 mph - N/A   Mostly Cloudy
10:00 AM 79 °F - 74 °F 80% 29.87 in - South 10.4 mph - -  
10:04 AM 78.8 °F - 73.4 °F 83% 29.86 in 3.7 mi South 11.5 mph - N/A   Mostly Cloudy
10:30 AM 78.8 °F - 73.4 °F 83% 29.86 in 6.2 mi South 8.1 mph - N/A   Mostly Cloudy
11:00 AM 82.4 °F 90.9 °F 77.0 °F 84% 29.83 in 6.2 mi South 9.2 mph - N/A   Scattered Clouds
11:30 AM 82.4 °F 90.9 °F 77.0 °F 84% 29.83 in 6.2 mi SSE 12.7 mph - N/A   Mostly Cloudy
11:51 AM 78.8 °F - 75.2 °F 89% 29.86 in 2.5 mi South 13.8 mph - N/A Rain Rain Showers
12:00 PM 77 °F - 75 °F 92% 29.86 in 3 mi SSE 11.5 mph - - Rain Light Rain Showers
12:00 PM 77.0 °F - 75.2 °F 94% 29.86 in 3.1 mi SSE 11.5 mph - N/A Rain Light Rain Showers
12:16 PM 77.0 °F - 75.2 °F 94% 29.83 in 5.0 mi South 12.7 mph - N/A Rain Light Rain Showers
12:30 PM 77.0 °F - 75.2 °F 94% 29.83 in 6.2 mi South 11.5 mph - N/A   Mostly Cloudy
1:00 PM 78.8 °F - 75.2 °F 89% 29.83 in 3.7 mi South 11.5 mph - N/A   Mostly Cloudy
1:30 PM 78.8 °F - 75.2 °F 89% 29.83 in 5.0 mi SE 10.4 mph - N/A Rain Light Rain Showers
2:00 PM 78.8 °F - 73.4 °F 83% 29.83 in 6.2 mi SSW 12.7 mph - N/A   Mostly Cloudy
2:21 PM 78.8 °F - 71.6 °F 78% 29.80 in 3.1 mi South 12.7 mph - N/A Rain Light Rain Showers
2:30 PM 77.0 °F - 73.4 °F 89% 29.80 in 3.1 mi South 12.7 mph - N/A Rain Light Rain Showers
2:35 PM 77.0 °F - 73.4 °F 89% 29.80 in 3.7 mi South 11.5 mph - N/A   Mostly Cloudy
3:00 PM 80.6 °F 85.4 °F 73.4 °F 79% 29.80 in 6.2 mi South 10.4 mph - N/A   Mostly Cloudy
3:30 PM 80.6 °F 86.2 °F 75.2 °F 84% 29.80 in 6.2 mi South 10.4 mph - N/A   Scattered Clouds
4:00 PM 80 °F - 73 °F 74% 29.81 in - South 11.5 mph - -  
4:00 PM 80.6 °F 85.4 °F 73.4 °F 79% 29.80 in 6.2 mi South 11.5 mph - N/A   Scattered Clouds
4:30 PM 82.4 °F 88.2 °F 73.4 °F 74% 29.80 in 6.2 mi South 10.4 mph - N/A   Scattered Clouds
5:00 PM 80.6 °F 85.4 °F 73.4 °F 79% 29.80 in 3.7 mi South 10.4 mph - N/A Rain Light Rain Showers
5:30 PM 77.0 °F - 75.2 °F 94% 29.80 in 6.2 mi South 5.8 mph - N/A   Mostly Cloudy
5:40 PM 77.0 °F - 75.2 °F 94% 29.83 in 2.5 mi Calm Calm - N/A Rain Light Rain Showers
6:00 PM 76 °F - 74 °F 93% 29.83 in 2 mi ESE 8.1 mph - - Rain Light Rain Showers
6:00 PM 77.0 °F - 75.2 °F 94% 29.83 in 2.5 mi ESE 8.1 mph - N/A Rain Light Rain Showers
6:30 PM 77.0 °F - 73.4 °F 89% 29.83 in 6.2 mi South 11.5 mph - N/A   Mostly Cloudy
6:34 PM 75.2 °F - 75.2 °F 100% 29.83 in 3.1 mi South 11.5 mph - N/A Rain Light Rain Showers
6:50 PM 75.2 °F - 73.4 °F 94% 29.83 in 6.2 mi South 10.4 mph - N/A   Mostly Cloudy
6:55 PM 75.2 °F - 73.4 °F 94% 29.83 in 6.2 mi South 8.1 mph - N/A   Mostly Cloudy
7:30 PM 77.0 °F - 73.4 °F 89% 29.83 in 3.1 mi SSE 6.9 mph - N/A Rain Light Rain Showers
7:50 PM 75.2 °F - 73.4 °F 94% 29.83 in 2.5 mi SE 8.1 mph - N/A   Mostly Cloudy
8:00 PM 75.2 °F - 73.4 °F 94% 29.83 in 3.7 mi South 3.5 mph - N/A Rain Light Rain Showers
8:16 PM 75.2 °F - 73.4 °F 94% 29.83 in 6.2 mi South 1.2 mph - N/A   Mostly Cloudy
8:30 PM 75.2 °F - 73.4 °F 94% 29.83 in 5.0 mi SSE 4.6 mph - N/A   Mostly Cloudy
8:33 PM 77.0 °F - 73.4 °F 89% 29.83 in 2.5 mi SSE 3.5 mph - N/A Rain Light Rain Showers
9:00 PM 75 °F - 74 °F 97% 29.87 in 3 mi SSE 9.2 mph - - Rain Light Rain Showers
9:00 PM 75.2 °F - 75.2 °F 100% 29.86 in 3.1 mi SSE 9.2 mph - N/A Rain Light Rain Showers
9:10 PM 75.2 °F - 75.2 °F 100% 29.86 in 1.2 mi SE 10.4 mph - N/A Rain Light Rain Showers
9:30 PM 75.2 °F - 75.2 °F 100% 29.89 in 3.7 mi SSE 6.9 mph - N/A Rain Light Rain Showers
9:50 PM 75.2 °F - 73.4 °F 94% 29.89 in 6.2 mi South 8.1 mph - N/A   Mostly Cloudy
10:00 PM 76 °F - 74 °F 91% 29.89 in - South 8.1 mph - -  
10:00 PM 75.2 °F - 73.4 °F 94% 29.89 in 6.2 mi South 8.1 mph - N/A   Mostly Cloudy
10:30 PM 77.0 °F - 73.4 °F 89% 29.86 in 6.2 mi South 6.9 mph - N/A   Mostly Cloudy
11:00 PM 77.0 °F - 73.4 °F 89% 29.86 in 6.2 mi SSE 3.5 mph - N/A   Mostly Cloudy
11:13 PM 77.0 °F - 73.4 °F 89% 29.86 in 1.2 mi NNE 5.8 mph - N/A Rain Rain Showers
11:20 PM 75.2 °F - 73.4 °F 94% 29.86 in 3.7 mi South 12.7 mph - N/A Rain Light Rain Showers
11:30 PM 75.2 °F - 73.4 °F 94% 29.86 in 5.0 mi SSE 12.7 mph - N/A Rain Light Rain Showers